Flight Briefing for CPX248

Departure Arrival
Theodore Francis Green State Airport (KPVD)
Click to view FAA NOTAMS
Miami International Airport (KMIA)
Click to view FAA NOTAMS
Departure Time Arrival Time
N/A N/A
Aircraft Distance
B767-300BDSF 1351nm
Departure METAR Arrival METAR
KPVD 181551Z 30012G18KT 10SM FEW055 04/M11 A3025 RMK AO2 SLP244 T00391111 KMIA 181553Z 29005KT 10SM FEW017 23/20 A3007 RMK AO2 SLP181 T02330200
Suggested Route
JUMPR RIFLE J174 SWL CEBEE WETRO DIW AR22 JORAY HILEY7


View recent IFR Routes data
Notes



Charts and Procedures

Charts for KPVD
No chart available
Charts for KMIA
No chart available

Windy.com Weather Map